Change the Weather History Date:

Tuesday, December 25, 2012

  Actual Average (KBDE) Record (KBDE)
Temperature  
Mean Temperature -5 °F -  
Max Temperature 1 °F 13 °F 43 °F (1999)
Min Temperature -11 °F -9 °F -42 °F (1933)
Degree Days  
Heating Degree Days 70    
Moisture  
Dew Point -11 °F    
Average Humidity 81    
Maximum Humidity 92    
Minimum Humidity 72    
Precipitation  
Precipitation 0.00 in - - ()
Sea Level Pressure  
Sea Level Pressure 30.39 in    
Wind  
Wind Speed 6 mph (WSW)    
Max Wind Speed 9 mph    
Max Gust Speed -    
Visibility 10 miles    
Events      
Averages and records for this station are not official NWS values.
T = Trace of Precipitation, MM = Missing Value Source: NWS Daily Summary

Daily Weather History Graph

Daily Weather History Graph

Search for Another Location

Airport or City:

Trip Planner

Search our weather history database for the weather conditions in past years. The results will help you decide how hot, cold, wet, or windy it might be!

Date:

Astronomy

Dec. 25, 2012 Rise Set
Actual Time 8:07 AM CST 4:29 PM CST
Civil Twilight 7:31 AM CST 5:05 PM CST
Nautical Twilight 6:51 AM CST 5:45 PM CST
Astronomical Twilight 6:13 AM CST 6:23 PM CST
Moon 2:41 PM CST (12/25) 5:37 AM CST (12/25)
Length of Visible Light 9h 34m
Length of Day
8h 21m
Waxing Gibbous, 94% of the Moon is Illuminated
Dec 25
Waxing Gibbous
Dec 28
Full
Jan 4
Last Quarter
Jan 11
New
Jan 18
First Quarter

Hourly Weather History & Observations

Time (CST) Temp. Windchill Dew Point Humidity Pressure Visibility Wind Dir Wind Speed Gust Speed Precip Events Conditions
12:06 AM -9.4 °F -24.3 °F -14.8 °F 77% 30.31 in 10.0 mi West 6.9 mph - N/A   Overcast
12:26 AM -9.4 °F -24.3 °F -14.8 °F 77% 30.31 in 10.0 mi West 6.9 mph - N/A   Overcast
12:47 AM -9.4 °F -24.3 °F -14.8 °F 77% 30.32 in 10.0 mi West 6.9 mph - N/A   Overcast
1:06 AM -9.4 °F -22.7 °F -14.8 °F 77% 30.32 in 10.0 mi West 5.8 mph - N/A   Overcast
1:26 AM -9.4 °F -25.6 °F -14.8 °F 77% 30.32 in 10.0 mi West 8.1 mph - N/A   Overcast
1:47 AM -9.4 °F -24.3 °F -14.8 °F 77% 30.33 in 10.0 mi WNW 6.9 mph - N/A   Overcast
2:06 AM -9.4 °F -22.7 °F -14.8 °F 77% 30.34 in 10.0 mi West 5.8 mph - N/A   Overcast
2:26 AM -9.4 °F -24.3 °F -14.8 °F 77% 30.34 in 10.0 mi West 6.9 mph - N/A   Overcast
3:06 AM -9.4 °F -24.3 °F -13.0 °F 84% 30.35 in 10.0 mi WNW 6.9 mph - N/A   Overcast
3:26 AM -9.4 °F -24.3 °F -13.0 °F 84% 30.35 in 10.0 mi West 6.9 mph - N/A   Overcast
3:47 AM -9.4 °F -20.9 °F -13.0 °F 84% 30.36 in 10.0 mi West 4.6 mph - N/A   Overcast
4:06 AM -9.4 °F -22.7 °F -13.0 °F 84% 30.36 in 10.0 mi West 5.8 mph - N/A   Overcast
4:27 AM -9.4 °F -24.3 °F -13.0 °F 84% 30.36 in 10.0 mi West 6.9 mph - N/A   Overcast
4:47 AM -9.4 °F -24.3 °F -13.0 °F 84% 30.36 in 10.0 mi WSW 6.9 mph - N/A   Overcast
5:06 AM -9.4 °F -24.3 °F -13.0 °F 84% 30.37 in 10.0 mi West 6.9 mph - N/A   Overcast
5:27 AM -9.4 °F -24.3 °F -13.0 °F 84% 30.37 in 10.0 mi WSW 6.9 mph - N/A   Overcast
6:06 AM -9.4 °F -24.3 °F -13.0 °F 84% 30.39 in 10.0 mi WSW 6.9 mph - N/A   Overcast
6:27 AM -9.4 °F -24.3 °F -14.8 °F 77% 30.39 in 10.0 mi WSW 6.9 mph - N/A   Overcast
6:46 AM -11.2 °F -26.4 °F -14.8 °F 84% 30.40 in 10.0 mi SW 6.9 mph - N/A   Overcast
7:06 AM -11.2 °F -24.8 °F -14.8 °F 84% 30.40 in 10.0 mi WSW 5.8 mph - N/A   Scattered Clouds
7:27 AM -11.2 °F -29.0 °F -14.8 °F 84% 30.40 in 10.0 mi WSW 9.2 mph - N/A   Clear
7:46 AM -11.2 °F -24.8 °F -16.6 °F 77% 30.40 in 10.0 mi SW 5.8 mph - N/A   Clear
8:06 AM -11.2 °F -24.8 °F -16.6 °F 77% 30.40 in 10.0 mi SW 5.8 mph - N/A   Clear
8:27 AM -11.2 °F -23.0 °F -16.6 °F 77% 30.40 in 10.0 mi SW 4.6 mph - N/A   Clear
8:46 AM -11.2 °F -24.8 °F -14.8 °F 84% 30.41 in 10.0 mi SW 5.8 mph - N/A   Clear
9:06 AM -9.4 °F -24.3 °F -14.8 °F 77% 30.41 in 10.0 mi SSW 6.9 mph - N/A   Clear
9:27 AM -9.4 °F -22.7 °F -14.8 °F 77% 30.41 in 10.0 mi SW 5.8 mph - N/A   Clear
9:46 AM -7.6 °F -22.1 °F -13.0 °F 77% 30.42 in 10.0 mi WSW 6.9 mph - N/A   Scattered Clouds
10:06 AM -9.4 °F -22.7 °F -13.0 °F 84% 30.42 in 10.0 mi SW 5.8 mph - N/A   Scattered Clouds
10:27 AM -7.6 °F -20.6 °F -11.2 °F 84% 30.43 in 10.0 mi WSW 5.8 mph - N/A   Clear
10:46 AM -5.8 °F -19.9 °F -9.4 °F 84% 30.42 in 10.0 mi SW 6.9 mph - N/A   Clear
11:06 AM -5.8 °F -21.2 °F -9.4 °F 84% 30.42 in 10.0 mi SW 8.1 mph - N/A   Clear
11:27 AM -5.8 °F -19.9 °F -9.4 °F 84% 30.42 in 10.0 mi SW 6.9 mph - N/A   Clear
12:06 PM -2.2 °F -15.6 °F -7.6 °F 78% 30.41 in 10.0 mi SW 6.9 mph - N/A   Clear
12:27 PM -2.2 °F -15.6 °F -7.6 °F 78% 30.40 in 10.0 mi SW 6.9 mph - N/A   Clear
12:46 PM -0.4 °F -12.0 °F -7.6 °F 72% 30.40 in 10.0 mi WSW 5.8 mph - N/A   Clear
1:06 PM -0.4 °F -10.4 °F -7.6 °F 72% 30.39 in 10.0 mi SW 4.6 mph - N/A   Clear
1:27 PM -0.4 °F -12.0 °F -5.8 °F 78% 30.39 in 10.0 mi WSW 5.8 mph - N/A   Clear
1:46 PM -0.4 °F -14.7 °F -5.8 °F 78% 30.39 in 10.0 mi SW 8.1 mph - N/A   Clear
2:06 PM 1.4 °F -12.5 °F -5.8 °F 72% 30.39 in 10.0 mi SW 8.1 mph - N/A   Clear
2:27 PM 1.4 °F -11.3 °F -5.8 °F 72% 30.39 in 10.0 mi SW 6.9 mph - N/A   Clear
2:46 PM 1.4 °F -12.5 °F -5.8 °F 72% 30.39 in 10.0 mi SW 8.1 mph - N/A   Clear
3:06 PM 1.4 °F -11.3 °F -5.8 °F 72% 30.39 in 10.0 mi SSW 6.9 mph - N/A   Clear
3:27 PM -0.4 °F -10.4 °F -5.8 °F 78% 30.39 in 10.0 mi SW 4.6 mph - N/A   Clear
3:46 PM -0.4 °F -10.4 °F -5.8 °F 78% 30.39 in 10.0 mi SSW 4.6 mph - N/A   Clear
4:06 PM -0.4 °F - -5.8 °F 78% 30.39 in 10.0 mi Calm Calm - N/A   Clear
4:26 PM -2.2 °F - -7.6 °F 78% 30.39 in 10.0 mi Calm Calm - N/A   Clear
4:46 PM -2.2 °F - -7.6 °F 78% 30.38 in 10.0 mi Calm Calm - N/A   Clear
5:06 PM -5.8 °F -18.4 °F -9.4 °F 84% 30.38 in 10.0 mi SW 5.8 mph - N/A   Clear
5:27 PM -4.0 °F -19.0 °F -7.6 °F 85% 30.38 in 10.0 mi SW 8.1 mph - N/A   Clear
5:46 PM -4.0 °F -19.0 °F -7.6 °F 85% 30.39 in 10.0 mi SW 8.1 mph - N/A   Clear
6:07 PM -5.8 °F -19.9 °F -9.4 °F 84% 30.39 in 10.0 mi SW 6.9 mph - N/A   Clear
6:26 PM -5.8 °F -19.9 °F -9.4 °F 84% 30.39 in 10.0 mi WSW 6.9 mph - N/A   Clear
6:46 PM -5.8 °F -18.4 °F -9.4 °F 84% 30.39 in 10.0 mi WSW 5.8 mph - N/A   Clear
7:07 PM -5.8 °F -18.4 °F -9.4 °F 84% 30.40 in 10.0 mi WSW 5.8 mph - N/A   Clear
7:26 PM -5.8 °F -16.7 °F -9.4 °F 84% 30.41 in 10.0 mi SW 4.6 mph - N/A   Clear
7:46 PM -5.8 °F -16.7 °F -9.4 °F 84% 30.41 in 10.0 mi WSW 4.6 mph - N/A   Clear
8:07 PM -5.8 °F -19.9 °F -9.4 °F 84% 30.41 in 10.0 mi SW 6.9 mph - N/A   Clear
8:26 PM -7.6 °F -20.6 °F -9.4 °F 92% 30.42 in 10.0 mi SW 5.8 mph - N/A   Clear
8:46 PM -7.6 °F -18.8 °F -11.2 °F 84% 30.42 in 10.0 mi SW 4.6 mph - N/A   Clear
9:07 PM -7.6 °F - -11.2 °F 84% 30.41 in 10.0 mi Calm Calm - N/A   Clear
9:26 PM -7.6 °F -16.5 °F -11.2 °F 84% 30.41 in 10.0 mi SSW 3.5 mph - N/A   Clear
9:46 PM -7.6 °F -16.5 °F -11.2 °F 84% 30.41 in 10.0 mi SSW 3.5 mph - N/A   Clear
10:07 PM -7.6 °F -16.5 °F -11.2 °F 84% 30.40 in 10.0 mi SSW 3.5 mph - N/A   Clear
10:26 PM -7.6 °F - -11.2 °F 84% 30.39 in 10.0 mi Calm Calm - N/A   Clear
10:46 PM -7.6 °F - -11.2 °F 84% 30.39 in 10.0 mi Calm Calm - N/A   Clear
11:07 PM -9.4 °F - -13.0 °F 84% 30.39 in 10.0 mi Calm Calm - N/A   Clear
11:26 PM -9.4 °F - -14.8 °F 77% 30.38 in 10.0 mi Calm Calm - N/A   Clear
11:46 PM -9.4 °F -18.6 °F -11.2 °F 92% 30.37 in 10.0 mi WSW 3.5 mph - N/A   Clear